Location: Newark
(44.6303°N, 123.0961°W)
Time: 22:42:11
(UTC+00:00)

Envisat - Pass Details

Date: 25 January 2020
Orbit: 764 x 766 km, 98.1° (Epoch: 25 February)

Event Time Altitude Azimuth Distance (km) Brightness Sun altitude
Rises 14:32:12 0° 18° (NNE) 3,243 6.3 -11.9°
Reaches altitude 10° 14:34:36 10° 23° (NNE) 2,312 5.6 -11.5°
Maximum altitude 14:39:33 50° 99° (E) 971 4.1 -10.7°
Drops below altitude 10° 14:44:27 10° 175° (S) 2,294 5.8 -9.8°
Sets 14:46:49 0° 180° (S) 3,215 6.5 -9.4°
